GW6466 Weather Reports


time (UTC)temp
C
wind
direction
speed
KPH
gust
KPH
rain 1hr
cm
rain 24hr
cm
rain mn
cm
humidity
%
barometer
mb
20260505035159 2 352 1.6 11.3 0.13 0.00 0.30 93 745.0
20260505034658 3 346 0.0 0.0 0.30 0.00 0.30 93 745.0
20260505034158 3 34 1.6 3.2 0.18 0.00 0.28 93 745.0
20260505033658 3 46 0.0 0.0 0.00 0.00 0.25 93 745.0
20260505033159 3 1 1.6 3.2 0.00 0.00 0.25 93 745.0
20260505032658 3 10 0.0 0.0 0.00 0.00 0.25 92 745.0
20260505032158 3 359 0.0 0.0 0.00 0.00 0.25 92 745.0
20260505031700 3 214 0.0 0.0 0.00 0.00 0.25 92 745.0
20260505031158 3 200 0.0 3.2 0.00 0.00 0.25 92 745.0
20260505030658 3 155 0.0 1.6 0.00 0.00 0.25 92 745.0
20260505030200 3 56 0.0 3.2 0.13 0.00 0.25 91 745.0
20260505025701 3 28 0.0 3.2 0.13 0.00 0.25 91 745.0
20260505025200 3 194 1.6 8.0 0.00 0.00 0.23 91 745.0
20260505024658 3 179 4.8 8.0 0.00 0.00 0.23 90 745.0
20260505024158 3 59 1.6 8.0 0.00 0.00 0.23 89 745.0
20260505023658 3 32 0.0 4.8 0.18 0.00 0.23 89 745.0
20260505023159 3 14 1.6 4.8 0.48 0.00 0.23 88 745.0
20260505022658 3 356 1.6 3.2 0.48 0.00 0.20 86 745.0
20260505022200 3 118 3.2 4.8 0.18 0.00 0.15 86 745.0
20260505021659 3 242 4.8 9.7 0.00 0.00 0.13 85 745.0
20260505021158 3 175 4.8 4.8 0.00 0.00 0.13 85 745.0
20260505020700 3 205 6.4 9.7 0.00 0.00 0.13 85 745.0
20260505020158 3 188 4.8 8.0 0.00 0.00 0.13 85 745.0
20260505015658 3 187 4.8 4.8 0.00 0.00 0.13 85 744.0
20260505015158 3 203 6.4 9.7 0.00 0.00 0.13 85 745.0
20260505014658 3 180 3.2 4.8 0.00 0.00 0.13 85 745.0
20260505014158 3 225 3.2 3.2 0.00 0.00 0.13 86 745.0
20260505013658 3 121 4.8 9.7 0.00 0.00 0.13 86 745.0
20260505013158 3 137 9.7 11.3 0.00 0.00 0.13 87 744.0
20260505012659 3 51 3.2 3.2 0.00 0.00 0.13 88 745.0
20260505011712 3 118 6.4 8.0 0.00 0.00 0.13 87 745.0
20260505011159 3 118 8.0 11.3 0.00 0.00 0.13 86 745.0
20260505010659 4 115 3.2 4.8 0.00 0.00 0.13 86 745.0
20260505010158 4 118 0.0 3.2 0.00 0.00 0.13 86 745.0
20260505005700 4 115 11.3 12.9 0.00 0.00 0.13 85 745.0
20260505005200 4 240 3.2 4.8 0.00 0.00 0.13 86 744.0
20260505004658 5 217 0.0 0.0 0.00 0.00 0.13 87 745.0
20260505004158 4 243 0.0 0.0 0.00 0.00 0.13 87 745.0
20260505003658 4 48 0.0 1.6 0.00 0.00 0.13 87 745.0
20260505003159 5 197 0.0 1.6 0.00 0.00 0.13 87 745.0
20260505002658 4 210 0.0 3.2 0.00 0.00 0.13 87 745.0
20260505002158 4 35 3.2 4.8 0.00 0.00 0.13 87 745.0
20260505001658 4 21 1.6 9.7 0.00 0.00 0.13 86 745.0
20260505001158 4 6 4.8 11.3 0.00 0.00 0.13 86 745.0
20260505000658 4 8 9.7 14.5 0.13 0.00 0.13 84 745.0
20260505000158 4 301 4.8 11.3 0.00 0.00 0.10 83 745.0
20260504235658 4 299 8.0 12.9 0.00 0.00 0.10 82 745.0
20260504235158 5 255 8.0 11.3 0.00 0.00 0.10 82 745.0
20260504234658 5 350 3.2 3.2 0.00 0.00 0.10 80 745.0
20260504234158 5 330 8.0 11.3 0.18 0.00 0.10 78 745.0
20260504233658 5 343 17.7 25.7 0.48 0.00 0.10 79 745.0
20260504233158 5 28 11.3 16.1 0.18 0.00 0.05 78 745.0
20260504232658 5 67 8.0 12.9 0.13 0.00 0.03 74 744.0
20260504232158 6 359 4.8 12.9 0.13 0.00 0.03 70 744.0
20260504231658 7 350 8.0 17.7 0.00 0.00 0.00 63 744.0
20260504231158 8 48 8.0 17.7 0.00 0.00 0.00 57 744.0
20260504230658 8 348 12.9 17.7 0.00 0.00 0.00 52 744.0
20260504230159 10 39 16.1 24.1 0.00 0.00 0.00 45 743.0
20260504225659 11 73 9.7 20.9 0.00 0.00 0.00 41 743.0
20260504225159 11 117 17.7 24.1 0.00 0.00 0.00 41 743.0
20260504224658 11 43 4.8 17.7 0.00 0.00 0.00 42 743.0
20260504224158 11 48 12.9 16.1 0.00 0.00 0.00 40 743.0
20260504223658 11 16 4.8 9.7 0.00 0.00 0.00 40 743.0
20260504223159 11 160 4.8 8.0 0.00 0.00 0.00 40 743.0
20260504222658 11 109 8.0 12.9 0.00 0.00 0.00 40 743.0
20260504222159 12 87 12.9 22.5 0.00 0.00 0.00 39 743.0
20260504221659 11 132 4.8 11.3 0.00 0.00 0.00 40 743.0
20260504221158 11 168 9.7 11.3 0.00 0.00 0.00 40 743.0
20260504220658 11 157 8.0 16.1 0.00 0.00 0.00 40 743.0
20260504220159 11 133 12.9 16.1 0.00 0.00 0.00 40 743.0
20260504215700 12 124 8.0 14.5 0.00 0.00 0.00 41 744.0
20260504215158 12 88 1.6 3.2 0.00 0.00 0.00 40 743.0
20260504214658 12 138 3.2 4.8 0.00 0.00 0.00 38 743.0
20260504214158 12 158 8.0 11.3 0.00 0.00 0.00 39 743.0
20260504213658 12 176 8.0 17.7 0.00 0.00 0.00 41 744.0
20260504213158 12 162 6.4 9.7 0.00 0.00 0.00 41 744.0
20260504212659 11 175 8.0 14.5 0.00 0.00 0.00 41 744.0
20260504212200 11 107 16.1 20.9 0.00 0.00 0.00 42 744.0
20260504211658 11 118 6.4 14.5 0.00 0.00 0.00 41 744.0
20260504211159 11 122 9.7 14.5 0.00 0.00 0.00 41 744.0
20260504210658 12 113 9.7 16.1 0.00 0.00 0.00 42 743.0
20260504210158 12 265 4.8 11.3 0.00 0.00 0.00 40 743.0
20260504205658 12 73 12.9 16.1 0.00 0.00 0.00 39 743.0
20260504205158 12 79 16.1 20.9 0.00 0.00 0.00 39 744.0
20260504204658 12 78 6.4 14.5 0.00 0.00 0.00 40 744.0
20260504204158 12 72 3.2 11.3 0.00 0.00 0.00 37 744.0
20260504203659 12 56 4.8 4.8 0.00 0.00 0.00 36 744.0
20260504203159 12 35 3.2 14.5 0.00 0.00 0.00 39 744.0
20260504202658 13 36 9.7 16.1 0.00 0.00 0.00 38 744.0
20260504202203 12 126 1.6 12.9 0.00 0.00 0.00 40 744.0
20260504201658 12 127 9.7 20.9 0.00 0.00 0.00 37 744.0
20260504201158 12 45 4.8 17.7 0.00 0.00 0.00 38 744.0
20260504200658 12 15 12.9 20.9 0.00 0.00 0.00 40 744.0
20260504200158 12 31 17.7 25.7 0.00 0.00 0.00 38 744.0
20260504195659 12 31 12.9 25.7 0.00 0.00 0.00 39 744.0
20260504195158 11 29 14.5 32.2 0.00 0.00 0.00 39 744.0
20260504194659 14 22 9.7 14.5 0.00 0.00 0.00 34 744.0
20260504194200 13 228 3.2 11.3 0.00 0.00 0.00 31 744.0
20260504193658 13 280 9.7 24.1 0.00 0.00 0.00 32 744.0
20260504193159 13 198 6.4 9.7 0.00 0.00 0.00 29 744.0
20260504192659 14 209 12.9 16.1 0.00 0.00 0.00 29 744.0
20260504192158 13 202 1.6 9.7 0.00 0.00 0.00 28 744.0
20260504191658 15 249 19.3 22.5 0.00 0.00 0.00 27 744.0
20260504191159 13 251 14.5 16.1 0.00 0.00 0.00 29 744.0
20260504190658 13 228 16.1 20.9 0.00 0.00 0.00 31 744.0
20260504190159 14 210 12.9 16.1 0.00 0.00 0.00 31 744.0
20260504185701 13 251 14.5 20.9 0.00 0.00 0.00 31 744.0
20260504185159 13 311 11.3 12.9 0.00 0.00 0.00 32 744.0
20260504184658 13 210 8.0 16.1 0.00 0.00 0.00 33 744.0
20260504184158 11 259 9.7 20.9 0.00 0.00 0.00 37 744.0
20260504183658 11 233 17.7 20.9 0.00 0.00 0.00 36 744.0
20260504183159 12 225 19.3 24.1 0.00 0.00 0.00 34 744.0
20260504182659 14 258 8.0 16.1 0.00 0.00 0.00 28 744.0
20260504182202 14 293 11.3 16.1 0.00 0.00 0.00 29 744.0
20260504181659 13 231 12.9 17.7 0.00 0.00 0.00 26 744.0
20260504181158 15 293 3.2 27.4 0.00 0.00 0.00 27 744.0
20260504180658 14 308 3.2 12.9 0.00 0.00 0.00 28 744.0
20260504180158 13 133 8.0 11.3 0.00 0.00 0.00 29 744.0
20260504175659 13 198 6.4 14.5 0.00 0.00 0.00 29 744.0
20260504175159 11 278 4.8 8.0 0.00 0.00 0.00 33 745.0
20260504174659 10 232 4.8 8.0 0.00 0.00 0.00 36 745.0
20260504174159 11 206 3.2 16.1 0.00 0.00 0.00 37 745.0
20260504173659 11 234 9.7 22.5 0.00 0.00 0.00 34 745.0
20260504173158 12 279 8.0 20.9 0.00 0.00 0.00 32 745.0
20260504172658 12 247 12.9 16.1 0.00 0.00 0.00 32 745.0
20260504172158 12 208 12.9 17.7 0.00 0.00 0.00 33 745.0
20260504171658 12 210 17.7 24.1 0.00 0.00 0.00 33 745.0
20260504171200 11 214 14.5 22.5 0.00 0.00 0.00 33 745.0
20260504170701 11 203 14.5 16.1 0.00 0.00 0.00 33 745.0
20260504170159 11 253 8.0 14.5 0.00 0.00 0.00 33 745.0
20260504160158 11 270 9.7 17.7 0.00 0.00 0.00 37 745.0
20260504150658 10 354 9.7 16.1 0.00 0.00 0.00 37 746.0
20260504150200 10 245 12.9 17.7 0.00 0.00 0.00 37 746.0
20260504141159 7 227 4.8 12.9 0.00 0.00 0.00 42 746.0
20260504140658 7 228 4.8 14.5 0.00 0.00 0.00 42 746.0
20260504140159 7 217 3.2 9.7 0.00 0.00 0.00 43 746.0
20260504130659 3 221 4.8 8.0 0.00 0.00 0.00 49 746.0
20260504130159 3 225 6.4 8.0 0.00 0.00 0.00 50 746.0
20260504110658 5 225 8.0 9.7 0.00 0.00 0.00 43 745.0
20260504110158 5 207 8.0 9.7 0.00 0.00 0.00 44 746.0
20260504100159 3 218 8.0 9.7 0.00 0.00 0.00 49 746.0
20260504081700 4 218 3.2 4.8 0.00 0.00 0.00 48 746.0
20260504081158 3 227 6.4 8.0 0.00 0.00 0.00 51 746.0
20260504080658 2 225 8.0 9.7 0.00 0.00 0.00 53 746.0
20260504080158 2 217 8.0 11.3 0.00 0.00 0.00 54 746.0
20260504070158 4 233 8.0 9.7 0.00 0.00 0.00 50 747.0
20260504060159 5 227 0.0 0.0 0.00 0.00 0.00 49 747.0
20260504050658 6 221 0.0 0.0 0.00 0.00 0.00 42 748.0
20260504050158 6 209 0.0 0.0 0.00 0.00 0.00 42 747.0
20260504045659 6 219 0.0 0.0 0.00 0.00 0.00 43 747.0
20260504045158 6 219 0.0 0.0 0.00 0.00 0.00 44 747.0
20260504044658 6 219 0.0 0.0 0.00 0.00 0.00 43 748.0
20260504044159 7 223 0.0 0.0 0.00 0.00 0.00 43 748.0
20260504043659 7 217 0.0 0.0 0.00 0.00 0.00 41 748.0
20260504043158 7 196 1.6 3.2 0.00 0.00 0.00 39 748.0
20260504042658 7 220 0.0 0.0 0.00 0.00 0.00 39 748.0
20260504042158 8 225 0.0 0.0 0.00 0.00 0.00 38 747.0
20260504041658 8 198 0.0 0.0 0.00 0.00 0.00 36 748.0
20260504041159 8 221 0.0 0.0 0.00 0.00 0.00 36 748.0
20260504040658 8 234 0.0 0.0 0.00 0.00 0.00 36 748.0
20260504040158 8 219 0.0 0.0 0.00 0.00 0.00 35 748.0
20260504035658 9 233 0.0 0.0 0.00 0.00 0.00 35 748.0